This is the latest recevied weather packets stored in our database for station/object NW1E. If no packets are shown the sender has not sent any weather packets the latest 10 day(s).
| Time | Temp. | Humidity | Pressure | Rain* | Wind** | Luminosity | Snow |
|---|---|---|---|---|---|---|---|
| 1777794814 | 23.33° C | 91% | 1012.9 hPa | 0 mm | - | 0 W/m² | - |
| 1777793911 | 23.33° C | 91% | 1012.9 hPa | 0 mm | - | 0 W/m² | - |
| 1777793012 | 23.33° C | 90% | 1013.1 hPa | 0 mm | - | 0 W/m² | - |
| 1777792711 | 23.33° C | 90% | 1013.1 hPa | 0 mm | - | 0 W/m² | - |
| 1777792294 | 23.33° C | 91% | 1013 hPa | 0 mm | - | 0 W/m² | - |
| 1777791375 | 23.33° C | 90% | 1013 hPa | 0 mm | - | 0 W/m² | - |
| 1777790912 | 23.33° C | 90% | 1013 hPa | 0 mm | - | 0 W/m² | - |
| 1777790313 | 23.33° C | 90% | 1012.9 hPa | 0 mm | - | 0 W/m² | - |
| 1777787307 | 23.33° C | 90% | 1013.6 hPa | 0 mm | - | 0 W/m² | - |
| 1777787183 | 23.33° C | 90% | 1013.6 hPa | 0 mm | - | 0 W/m² | - |
| 1777786406 | 23.33° C | 91% | 1013.8 hPa | 0 mm | - | 0 W/m² | - |
| 1777786107 | 23.33° C | 91% | 1013.8 hPa | 0 mm | - | 0 W/m² | - |
| 1777783085 | 22.78° C | 93% | 1014.1 hPa | 0.25 mm | - | 0 W/m² | - |
| 1777781585 | 22.78° C | 92% | 1014.2 hPa | 0.25 mm | - | 0 W/m² | - |
| 1777777082 | 22.78° C | 92% | 1013.2 hPa | 1.27 mm | - | 0 W/m² | - |
| 1777774852 | 23.33° C | 92% | 1013.1 hPa | 0.76 mm | - | 0 W/m² | - |
| 1777773469 | 23.33° C | 92% | 1013.2 hPa | 0 mm | - | 0 W/m² | - |
| 1777773170 | 23.33° C | 92% | 1013.1 hPa | 0 mm | - | 0 W/m² | - |
| 1777771368 | 23.33° C | 92% | 1012.5 hPa | 0 mm | - | 0 W/m² | - |
| 1777770455 | 23.33° C | 92% | 1012.2 hPa | 0.25 mm | - | 0 W/m² | - |
| 1777770325 | 22.78° C | 92% | 1012.3 hPa | 0.51 mm | - | 0 W/m² | - |
| 1777768347 | 22.78° C | 91% | 1012.3 hPa | 0.76 mm | - | 0 W/m² | - |
| 1777768048 | 22.78° C | 91% | 1012.3 hPa | 1.52 mm | - | 0 W/m² | - |
| 1777765341 | 23.89° C | 91% | 1012.3 hPa | 1.02 mm | - | 5 W/m² | - |
| 1777764726 | 23.89° C | 91% | 1012.3 hPa | 0.76 mm | - | 7 W/m² | - |
* Rain latest hour (hover to see other rain measurements)
** Current wind speed in m/s (hover to see current wind gust speed)